EW1015 Weather Reports


Display with metric or nautical units.
time (UTC)temp
F
wind
direction
speed
MPH
gust
MPH
rain 1hr
in
rain 24hr
in
rain mn
in
humidity
%
barometer
mb
20260831141545 67 115 1.0 3.0 0.15 0.15 0.15 58 1019.7
20260831140038 67 151 1.0 2.0 0.14 0.14 0.14 62 1020.0
20260831134531 67 5 1.0 2.0 0.08 0.08 0.08 67 1020.2
20260831133031 67 123 0.0 3.0 0.03 0.03 0.03 71 1019.8
20260831131522 67 260 0.0 1.0 0.00 0.00 0.00 72 1020.0
20260831130023 67 223 0.0 2.0 0.00 0.00 0.00 73 1019.9
20260831124522 68 223 0.0 1.0 0.00 0.00 0.00 74 1019.8
20260831123019 67 167 0.0 3.0 0.00 0.00 0.00 75 1019.8
20260831121513 67 163 2.0 4.0 0.00 0.00 0.00 75 1019.9
20260831120009 66 136 0.0 3.0 0.00 0.00 0.00 75 1020.1
20260831114508 66 182 0.0 3.0 0.00 0.00 0.00 75 1020.3
20260831113007 66 191 1.0 3.0 0.00 0.00 0.00 76 1020.4
20260831111508 66 167 0.0 2.0 0.00 0.00 0.00 76 1020.4
20260831110006 66 164 1.0 3.0 0.00 0.00 0.00 76 1020.2
20260831104504 65 152 0.0 2.0 0.00 0.00 0.00 77 1020.1
20260831103003 65 103 0.0 0.0 0.00 0.00 0.00 77 1020.1
20260831101502 64 103 0.0 1.0 0.00 0.00 0.00 77 1020.1
20260831100109 64 103 0.0 1.0 0.00 0.00 0.00 78 1020.1
20260831094559 64 103 0.0 1.0 0.00 0.00 0.00 78 1020.1
20260831093100 64 103 0.0 0.0 0.00 0.00 0.00 78 1020.1
20260831091559 63 103 0.0 2.0 0.00 0.00 0.00 79 1020.1
20260831090107 63 103 0.0 1.0 0.00 0.00 0.00 78 1020.2
20260831084555 63 103 0.0 1.0 0.00 0.00 0.00 79 1020.3
20260831083055 63 103 0.0 0.0 0.00 0.00 0.00 79 1020.4
20260831081553 62 103 0.0 1.0 0.00 0.00 0.00 79 1020.4
20260831080054 62 103 0.0 2.0 0.00 0.00 0.00 79 1020.4
20260831074550 62 64 0.0 2.0 0.00 0.00 0.00 79 1020.3
20260831073048 62 77 1.0 2.0 0.00 0.00 0.00 79 1020.1
20260831071549 61 19 0.0 1.0 0.00 0.00 0.00 80 1020.4
20260831070046 61 94 0.0 0.0 0.00 0.00 0.00 79 1020.4
20260831064548 61 94 0.0 2.0 0.00 0.00 0.00 79 1020.5
20260831063043 60 101 1.0 3.0 0.00 0.00 0.00 80 1020.3
20260831061556 60 63 0.0 2.0 0.00 0.00 0.00 80 1020.4
20260831060039 59 121 0.0 1.0 0.00 0.00 0.00 81 1020.6
20260831054539 59 245 1.0 2.0 0.00 0.00 0.00 81 1020.7
20260831053040 59 100 1.0 2.0 0.00 0.00 0.00 81 1020.5
20260831051538 59 66 0.0 1.0 0.00 0.00 0.00 80 1020.7
20260831050034 60 5 0.0 0.0 0.00 0.00 0.00 80 1021.0
20260831044534 60 5 0.0 1.0 0.00 0.00 0.00 80 1021.1
20260831043032 60 252 0.0 1.0 0.00 0.00 0.00 81 1021.1
20260831041531 60 106 1.0 2.0 0.00 0.00 0.00 81 1020.9
20260831040028 60 132 0.0 2.0 0.00 0.00 0.00 81 1020.9
20260831034527 60 57 0.0 0.0 0.00 0.00 0.00 81 1021.0
20260831033032 60 166 0.0 1.0 0.00 0.00 0.00 82 1020.9
20260831031533 60 71 0.0 2.0 0.00 0.00 0.00 82 1020.8
20260831030023 61 321 0.0 3.0 0.00 0.00 0.00 81 1020.8
20260831024536 61 317 0.0 2.0 0.00 0.00 0.00 81 1020.8
20260831023019 62 196 0.0 1.0 0.00 0.00 0.00 81 1020.8
20260831021519 62 126 0.0 2.0 0.00 0.00 0.00 81 1020.8
20260831020018 62 59 0.0 2.0 0.00 0.00 0.00 81 1021.0
20260831014532 62 71 0.0 1.0 0.00 0.00 0.00 81 1020.9
20260831013020 62 87 0.0 2.0 0.00 0.00 0.00 82 1020.9
20260831011518 62 103 0.0 2.0 0.00 0.00 0.00 82 1020.9
20260831010014 63 103 0.0 1.0 0.00 0.00 0.00 83 1020.6
20260831004512 64 103 0.0 2.0 0.00 0.00 0.00 84 1020.5
20260831003010 65 77 1.0 2.0 0.00 0.00 0.00 84 1020.1
20260831001508 66 292 0.0 0.0 0.00 0.00 0.00 84 1020.0
20260831000007 66 274 0.0 2.0 0.00 0.00 0.00 84 1019.8
20260830234507 66 270 0.0 2.0 0.00 0.00 0.00 84 1019.8
20260830233006 67 30 0.0 2.0 0.00 0.00 0.00 84 1019.7
20260830231507 67 348 1.0 2.0 0.00 0.00 0.00 84 1019.6
20260830230005 67 275 0.0 3.0 0.00 0.00 0.00 84 1019.6
20260830224505 67 269 1.0 4.0 0.00 0.00 0.00 84 1019.7
20260830223003 67 257 0.0 4.0 0.00 0.00 0.00 84 1019.8
20260830221504 67 280 2.0 5.0 0.00 0.00 0.00 84 1019.8
20260830220003 67 265 4.0 9.0 0.00 0.00 0.00 84 1019.8
20260830214502 67 290 4.0 10.0 0.00 0.00 0.00 84 1019.9
20260830213001 68 267 2.0 8.0 0.00 0.00 0.00 84 1019.8
20260830211501 69 292 4.0 10.0 0.00 0.00 0.00 84 1019.8
20260830210100 69 246 3.0 10.0 0.00 0.00 0.00 83 1019.8
20260830204601 69 242 3.0 10.0 0.00 0.00 0.00 83 1019.7
20260830203118 69 309 4.0 7.0 0.00 0.00 0.00 84 1019.8
20260830201608 68 289 1.0 4.0 0.00 0.00 0.00 84 1019.6
20260830200057 68 301 1.0 4.0 0.00 0.00 0.00 84 1019.6
20260830194602 68 298 1.0 4.0 0.00 0.00 0.00 84 1019.9
20260830193056 68 307 1.0 5.0 0.00 0.00 0.00 84 1020.1
20260830191600 68 328 3.0 5.0 0.00 0.00 0.00 84 1020.1
20260830190056 68 298 2.0 4.0 0.00 0.00 0.00 83 1020.1
20260830184555 68 267 2.0 6.0 0.00 0.00 0.00 83 1020.2
20260830183107 68 275 1.0 4.0 0.00 0.00 0.00 84 1020.1
20260830181558 67 214 2.0 6.0 0.00 0.00 0.00 83 1020.3
20260830180053 67 317 4.0 9.0 0.00 0.00 0.00 83 1020.6
20260830174558 68 304 5.0 10.0 0.00 0.00 0.00 81 1020.5
20260830173107 68 323 3.0 8.0 0.00 0.00 0.00 79 1020.3
20260830171550 69 12 3.0 4.0 0.00 0.00 0.00 78 1020.1
20260830170051 69 319 2.0 7.0 0.00 0.00 0.00 76 1020.3
20260830164607 70 317 5.0 12.0 0.00 0.00 0.00 74 1020.5
20260830163104 70 298 2.0 5.0 0.00 0.00 0.00 73 1020.4
20260830161549 70 323 2.0 4.0 0.00 0.00 0.00 72 1020.4
20260830160047 70 250 2.0 5.0 0.00 0.00 0.00 72 1020.5
20260830154551 71 314 3.0 8.0 0.00 0.00 0.00 70 1020.5
20260830153046 71 297 2.0 4.0 0.00 0.00 0.00 71 1020.4
20260830151546 71 304 1.0 4.0 0.00 0.00 0.00 72 1020.3
20260830150047 71 291 1.0 2.0 0.00 0.00 0.00 75 1020.3
20260830144556 71 281 0.0 3.0 0.00 0.00 0.00 74 1020.1
20260830143044 71 231 0.0 3.0 0.00 0.00 0.00 74 1020.0